TimeHST,TemperatureF,Dew PointF,Humidity,Sea Level PressureIn,VisibilityMPH,Wind Direction,Wind SpeedMPH,Gust SpeedMPH,PrecipitationIn,Events,Conditions,WindDirDegrees,DateUTC
12:55 AM,60.1,56.5,88,29.91,10.0,WNW,5.8,-,N/A,,Clear,300,2013-01-18 10:55:00
1:55 AM,59.9,55.8,86,29.88,10.0,NW,4.6,-,N/A,,Clear,320,2013-01-18 11:55:00
2:55 AM,60.1,57.2,90,29.87,10.0,NW,3.5,-,N/A,,Mostly Cloudy,320,2013-01-18 12:55:00
3:55 AM,57.7,55.2,91,29.86,10.0,NNW,3.5,-,N/A,,Partly Cloudy,330,2013-01-18 13:55:00
4:55 AM,57.6,55.2,92,29.86,10.0,NNW,3.5,-,N/A,,Clear,340,2013-01-18 14:55:00
5:55 AM,57.7,55.8,93,29.88,10.0,NW,3.5,-,N/A,,Scattered Clouds,320,2013-01-18 15:55:00
6:55 AM,56.5,54.7,94,29.89,10.0,Calm,Calm,-,N/A,,Clear,0,2013-01-18 16:55:00
7:55 AM,58.6,56.3,92,29.91,10.0,Calm,Calm,-,N/A,,Clear,0,2013-01-18 17:55:00
8:55 AM,64.9,59.9,84,29.93,10.0,North,4.6,-,N/A,,Clear,350,2013-01-18 18:55:00
9:55 AM,69.4,59.4,70,29.94,10.0,NNW,10.4,-,N/A,,Clear,330,2013-01-18 19:55:00
10:40 AM,69.8,59.0,68,29.94,10.0,NNW,11.5,-,N/A,,Mostly Cloudy,340,2013-01-18 20:40:00
10:41 AM,71.6,59.0,64,29.94,10.0,NNW,15.0,-,N/A,,Mostly Cloudy,340,2013-01-18 20:41:00
10:43 AM,71.6,59.0,64,29.95,10.0,NNW,12.7,-,N/A,,Mostly Cloudy,340,2013-01-18 20:43:00
10:46 AM,69.8,57.2,64,29.94,10.0,North,10.4,-,N/A,,Mostly Cloudy,350,2013-01-18 20:46:00
10:55 AM,70.9,58.5,65,29.94,10.0,NNW,12.7,-,N/A,,Mostly Cloudy,330,2013-01-18 20:55:00
11:55 AM,71.6,58.5,63,29.91,10.0,NNW,11.5,18.4,N/A,,Mostly Cloudy,330,2013-01-18 21:55:00
12:55 PM,73.2,57.9,59,29.87,10.0,NNW,12.7,-,N/A,,Partly Cloudy,340,2013-01-18 22:55:00
1:55 PM,73.9,58.1,58,29.83,10.0,NW,10.4,-,N/A,,Partly Cloudy,320,2013-01-18 23:55:00
2:55 PM,73.2,58.6,60,29.83,10.0,NNW,11.5,-,N/A,,Clear,330,2013-01-19 00:55:00
3:55 PM,72.7,59.2,62,29.85,10.0,NW,12.7,-,N/A,,Mostly Cloudy,310,2013-01-19 01:55:00
4:34 PM,69.8,60.8,73,29.86,10.0,NW,13.8,-,N/A,,Light Drizzle,310,2013-01-19 02:34:00
4:44 PM,69.8,60.8,73,29.86,10.0,NW,9.2,-,N/A,,Scattered Clouds,310,2013-01-19 02:44:00
4:52 PM,71.6,62.6,73,29.86,10.0,NNW,12.7,-,N/A,Rain,Light Rain,340,2013-01-19 02:52:00
4:55 PM,70.9,62.2,74,29.85,10.0,North,13.8,-,0.00,Rain,Light Rain,350,2013-01-19 02:55:00
5:03 PM,69.8,62.6,78,29.86,10.0,NNW,11.5,-,N/A,Rain,Light Rain,340,2013-01-19 03:03:00
5:05 PM,69.8,62.6,78,29.86,10.0,NNW,11.5,-,N/A,Rain,Light Rain,340,2013-01-19 03:05:00
5:14 PM,69.8,62.6,78,29.86,10.0,NW,15.0,21.9,N/A,,Mostly Cloudy,320,2013-01-19 03:14:00
5:55 PM,69.3,61.2,75,29.88,10.0,NW,12.7,-,0.00,,Scattered Clouds,320,2013-01-19 03:55:00
6:55 PM,67.6,61.2,80,29.90,10.0,North,8.1,-,N/A,,Scattered Clouds,350,2013-01-19 04:55:00
7:55 PM,67.1,60.4,79,29.93,10.0,NNW,8.1,-,N/A,,Mostly Cloudy,330,2013-01-19 05:55:00
8:55 PM,66.2,58.6,77,29.93,10.0,North,8.1,-,N/A,,Mostly Cloudy,350,2013-01-19 06:55:00
9:55 PM,64.8,56.1,74,29.93,10.0,NNW,6.9,-,N/A,,Scattered Clouds,330,2013-01-19 07:55:00
10:55 PM,64.0,54.9,72,29.94,10.0,NNW,5.8,-,N/A,,Scattered Clouds,330,2013-01-19 08:55:00
11:55 PM,62.1,53.1,72,29.93,10.0,Calm,Calm,-,N/A,,Scattered Clouds,0,2013-01-19 09:55:00